Station Historical Data
Daily Summary for February 27, 2017 Units:  English    Metric   Both
« Previous Day
Next Day »
Daily Weekly Monthly Yearly Custom
  High: Low: Average:
Temperature: 46.0 °F 32.8 °F 39.5 °F
Dew Point: 29.1 °F 20.4 °F 25 °F
Humidity: 76% 45% 57%
Wind Speed: 17.0mph 0.0mph 6.1mph
Wind Gust: 25.0mph - -
Wind- - SW
Pressure: 30.30 in 30.12 in -
Precipitation: 0.00 in    
Historical Graphs
 
 
Tabular Data for February 27, 2017
Time Temperature Dew Point Pressure Wind Wind Speed Wind Gust Humidity Rainfall Rate (Hourly)
00:04 35.6 °F 21.0 °F 30.12 in SSW 5.0 mph 12.0 mph 55% 0.00 in
00:09 35.5 °F 20.9 °F 30.12 in SSW 5.0 mph 12.0 mph 55% 0.00 in
00:14 35.4 °F 20.8 °F 30.12 in SW 5.0 mph 10.0 mph 55% 0.00 in
00:19 35.5 °F 20.9 °F 30.12 in WSW 5.0 mph 12.0 mph 55% 0.00 in
00:24 35.6 °F 21.0 °F 30.12 in SW 6.0 mph 11.0 mph 55% 0.00 in
00:29 35.6 °F 21.0 °F 30.12 in South 4.0 mph 11.0 mph 55% 0.00 in
00:34 35.8 °F 21.2 °F 30.12 in SSW 9.0 mph 13.0 mph 55% 0.00 in
00:39 36.0 °F 20.9 °F 30.12 in South 8.0 mph 11.0 mph 54% 0.00 in
00:44 36.4 °F 21.3 °F 30.12 in SW 7.0 mph 16.0 mph 54% 0.00 in
00:49 36.8 °F 21.7 °F 30.12 in West 11.0 mph 16.0 mph 54% 0.00 in
00:54 37.2 °F 21.6 °F 30.12 in SW 12.0 mph 14.0 mph 53% 0.00 in
00:59 37.4 °F 21.4 °F 30.13 in SW 8.0 mph 17.0 mph 52% 0.00 in
01:04 37.4 °F 21.4 °F 30.13 in SW 9.0 mph 17.0 mph 52% 0.00 in
01:09 37.4 °F 21.4 °F 30.13 in SW 8.0 mph 19.0 mph 52% 0.00 in
01:14 37.4 °F 21.4 °F 30.13 in SW 8.0 mph 19.0 mph 52% 0.00 in
01:19 37.4 °F 21.4 °F 30.13 in SW 8.0 mph 16.0 mph 52% 0.00 in
01:24 37.5 °F 21.5 °F 30.13 in South 7.0 mph 14.0 mph 52% 0.00 in
01:29 37.7 °F 21.6 °F 30.13 in SW 9.0 mph 18.0 mph 52% 0.00 in
01:34 37.6 °F 21.5 °F 30.14 in SW 5.0 mph 16.0 mph 52% 0.00 in
01:39 37.7 °F 21.6 °F 30.13 in WSW 10.0 mph 15.0 mph 52% 0.00 in
01:44 37.9 °F 21.8 °F 30.13 in SW 7.0 mph 22.0 mph 52% 0.00 in
01:49 38.0 °F 21.5 °F 30.14 in SW 11.0 mph 18.0 mph 51% 0.00 in
01:54 38.1 °F 21.5 °F 30.14 in South 6.0 mph 16.0 mph 51% 0.00 in
01:59 38.1 °F 21.5 °F 30.14 in SW 5.0 mph 16.0 mph 51% 0.00 in
02:04 38.1 °F 21.1 °F 30.14 in SW 9.0 mph 19.0 mph 50% 0.00 in
02:09 38.3 °F 21.7 °F 30.14 in WSW 11.0 mph 16.0 mph 51% 0.00 in
02:14 38.3 °F 21.7 °F 30.14 in SW 9.0 mph 17.0 mph 51% 0.00 in
02:19 38.3 °F 22.2 °F 30.14 in SW 10.0 mph 18.0 mph 52% 0.00 in
02:24 38.3 °F 22.2 °F 30.14 in SW 10.0 mph 18.0 mph 52% 0.00 in
02:29 38.3 °F 22.2 °F 30.14 in SW 9.0 mph 17.0 mph 52% 0.00 in
02:34 38.2 °F 22.1 °F 30.14 in WSW 6.0 mph 15.0 mph 52% 0.00 in
02:39 38.3 °F 22.2 °F 30.14 in SW 13.0 mph 20.0 mph 52% 0.00 in
02:44 38.3 °F 22.2 °F 30.14 in South 12.0 mph 20.0 mph 52% 0.00 in
02:49 38.4 °F 21.8 °F 30.14 in West 7.0 mph 14.0 mph 51% 0.00 in
02:54 38.4 °F 21.8 °F 30.14 in WSW 13.0 mph 16.0 mph 51% 0.00 in
02:59 38.3 °F 22.2 °F 30.14 in SW 7.0 mph 15.0 mph 52% 0.00 in
03:04 38.3 °F 21.7 °F 30.14 in SW 10.0 mph 19.0 mph 51% 0.00 in
03:09 38.4 °F 21.8 °F 30.14 in SW 10.0 mph 19.0 mph 51% 0.00 in
03:14 38.4 °F 21.8 °F 30.14 in SW 10.0 mph 18.0 mph 51% 0.00 in
03:19 38.4 °F 21.8 °F 30.14 in SW 9.0 mph 16.0 mph 51% 0.00 in
03:24 38.4 °F 21.4 °F 30.14 in SW 9.0 mph 18.0 mph 50% 0.00 in
03:29 38.4 °F 21.8 °F 30.14 in SW 8.0 mph 18.0 mph 51% 0.00 in
03:34 38.4 °F 21.8 °F 30.14 in SW 9.0 mph 17.0 mph 51% 0.00 in
03:39 38.4 °F 21.8 °F 30.15 in SW 9.0 mph 17.0 mph 51% 0.00 in
03:44 38.4 °F 21.8 °F 30.15 in SSW 5.0 mph 14.0 mph 51% 0.00 in
03:49 38.4 °F 22.3 °F 30.15 in SSW 3.0 mph 18.0 mph 52% 0.00 in
03:54 38.2 °F 22.6 °F 30.15 in SW 12.0 mph 16.0 mph 53% 0.00 in
03:59 38.1 °F 22.9 °F 30.15 in WSW 6.0 mph 17.0 mph 54% 0.00 in
04:04 38.3 °F 23.1 °F 30.15 in WSW 8.0 mph 17.0 mph 54% 0.00 in
04:09 38.4 °F 22.7 °F 30.15 in SSW 8.0 mph 18.0 mph 53% 0.00 in
04:14 38.5 °F 23.3 °F 30.15 in SW 10.0 mph 19.0 mph 54% 0.00 in
04:19 38.5 °F 23.3 °F 30.15 in SW 11.0 mph 19.0 mph 54% 0.00 in
04:24 38.5 °F 23.3 °F 30.15 in SW 6.0 mph 18.0 mph 54% 0.00 in
04:29 38.5 °F 23.3 °F 30.15 in SW 9.0 mph 18.0 mph 54% 0.00 in
04:34 38.5 °F 23.3 °F 30.15 in WSW 7.0 mph 20.0 mph 54% 0.00 in
04:39 38.5 °F 22.8 °F 30.15 in WSW 10.0 mph 20.0 mph 53% 0.00 in
04:44 38.5 °F 22.8 °F 30.15 in WSW 6.0 mph 18.0 mph 53% 0.00 in
04:49 38.4 °F 22.3 °F 30.16 in WSW 8.0 mph 14.0 mph 52% 0.00 in
04:54 38.5 °F 21.9 °F 30.16 in WSW 4.0 mph 17.0 mph 51% 0.00 in
04:59 38.6 °F 22.0 °F 30.16 in West 10.0 mph 19.0 mph 51% 0.00 in
05:04 38.4 °F 21.8 °F 30.16 in West 6.0 mph 12.0 mph 51% 0.00 in
05:09 38.2 °F 21.6 °F 30.16 in South 5.0 mph 12.0 mph 51% 0.00 in
05:14 37.7 °F 21.2 °F 30.16 in SW 6.0 mph 13.0 mph 51% 0.00 in
05:19 37.5 °F 21.0 °F 30.16 in SW 6.0 mph 14.0 mph 51% 0.00 in
05:24 37.4 °F 20.4 °F 30.16 in SW 7.0 mph 15.0 mph 50% 0.00 in
05:29 37.5 °F 21.0 °F 30.16 in SW 8.0 mph 17.0 mph 51% 0.00 in
05:34 37.8 °F 21.3 °F 30.17 in SW 9.0 mph 15.0 mph 51% 0.00 in
05:39 37.9 °F 20.9 °F 30.17 in SSW 4.0 mph 18.0 mph 50% 0.00 in
05:44 37.9 °F 21.4 °F 30.17 in SW 9.0 mph 18.0 mph 51% 0.00 in
05:49 38.0 °F 21.5 °F 30.17 in SW 8.0 mph 16.0 mph 51% 0.00 in
05:54 38.0 °F 21.0 °F 30.17 in SSW 17.0 mph 17.0 mph 50% 0.00 in
05:59 38.0 °F 21.5 °F 30.18 in WSW 7.0 mph 14.0 mph 51% 0.00 in
06:04 38.2 °F 21.6 °F 30.18 in West 9.0 mph 15.0 mph 51% 0.00 in
06:09 38.3 °F 21.7 °F 30.18 in South 10.0 mph 18.0 mph 51% 0.00 in
06:14 38.4 °F 21.8 °F 30.18 in SW 9.0 mph 18.0 mph 51% 0.00 in
06:19 38.4 °F 21.8 °F 30.19 in SW 9.0 mph 19.0 mph 51% 0.00 in
06:24 38.3 °F 21.7 °F 30.18 in SW 9.0 mph 19.0 mph 51% 0.00 in
06:29 38.4 °F 21.8 °F 30.19 in SW 7.0 mph 16.0 mph 51% 0.00 in
06:34 38.2 °F 22.1 °F 30.19 in WSW 6.0 mph 17.0 mph 52% 0.00 in
06:39 37.9 °F 22.3 °F 30.20 in WSW 6.0 mph 16.0 mph 53% 0.00 in
06:44 37.9 °F 22.3 °F 30.20 in SW 8.0 mph 16.0 mph 53% 0.00 in
06:49 38.1 °F 22.9 °F 30.20 in SW 8.0 mph 16.0 mph 54% 0.00 in
06:54 38.4 °F 22.7 °F 30.20 in SW 9.0 mph 18.0 mph 53% 0.00 in
06:59 38.6 °F 22.9 °F 30.21 in SW 9.0 mph 20.0 mph 53% 0.00 in
07:04 38.5 °F 22.8 °F 30.21 in SE 6.0 mph 17.0 mph 53% 0.00 in
07:09 38.4 °F 22.7 °F 30.21 in South 5.0 mph 16.0 mph 53% 0.00 in
07:14 38.3 °F 22.6 °F 30.22 in SW 9.0 mph 12.0 mph 53% 0.00 in
07:19 38.2 °F 22.6 °F 30.22 in SW 8.0 mph 16.0 mph 53% 0.00 in
07:24 38.0 °F 22.4 °F 30.22 in SW 7.0 mph 16.0 mph 53% 0.00 in
07:29 37.8 °F 22.2 °F 30.22 in SW 7.0 mph 14.0 mph 53% 0.00 in
07:34 37.6 °F 22.0 °F 30.22 in WSW 5.0 mph 11.0 mph 53% 0.00 in
07:39 37.3 °F 22.2 °F 30.22 in SW 11.0 mph 12.0 mph 54% 0.00 in
07:44 37.3 °F 21.7 °F 30.22 in SW 5.0 mph 11.0 mph 53% 0.00 in
07:49 37.0 °F 21.9 °F 30.22 in SW 6.0 mph 11.0 mph 54% 0.00 in
07:54 37.2 °F 22.1 °F 30.23 in SW 5.0 mph 11.0 mph 54% 0.00 in
07:59 37.5 °F 22.3 °F 30.23 in SW 6.0 mph 11.0 mph 54% 0.00 in
08:04 38.0 °F 22.8 °F 30.23 in SW 6.0 mph 10.0 mph 54% 0.00 in
08:09 38.4 °F 23.2 °F 30.23 in WSW 5.0 mph 10.0 mph 54% 0.00 in
08:14 38.8 °F 22.7 °F 30.22 in SSW 5.0 mph 20.0 mph 52% 0.00 in
08:19 39.3 °F 23.1 °F 30.23 in WSW 11.0 mph 13.0 mph 52% 0.00 in
08:24 39.8 °F 23.6 °F 30.23 in SW 7.0 mph 13.0 mph 52% 0.00 in
08:29 40.3 °F 23.6 °F 30.23 in SW 7.0 mph 14.0 mph 51% 0.00 in
08:34 40.7 °F 24.0 °F 30.23 in SW 9.0 mph 13.0 mph 51% 0.00 in
08:39 41.1 °F 23.9 °F 30.23 in SW 11.0 mph 19.0 mph 50% 0.00 in
08:44 41.5 °F 23.7 °F 30.23 in SW 10.0 mph 16.0 mph 49% 0.00 in
08:49 41.7 °F 23.9 °F 30.23 in SW 9.0 mph 19.0 mph 49% 0.00 in
08:54 41.8 °F 24.0 °F 30.23 in SW 10.0 mph 19.0 mph 49% 0.00 in
08:59 41.9 °F 24.1 °F 30.23 in WSW 9.0 mph 19.0 mph 49% 0.00 in
09:04 41.9 °F 24.6 °F 30.24 in WSW 10.0 mph 20.0 mph 50% 0.00 in
09:09 42.2 °F 24.4 °F 30.24 in WSW 9.0 mph 20.0 mph 49% 0.00 in
09:14 42.1 °F 23.8 °F 30.24 in NW 8.0 mph 19.0 mph 48% 0.00 in
09:19 42.3 °F 24.5 °F 30.24 in West 11.0 mph 18.0 mph 49% 0.00 in
09:24 42.5 °F 24.2 °F 30.24 in WSW 10.0 mph 18.0 mph 48% 0.00 in
09:29 42.6 °F 24.3 °F 30.24 in WSW 9.0 mph 19.0 mph 48% 0.00 in
09:34 42.5 °F 24.2 °F 30.24 in WSW 10.0 mph 19.0 mph 48% 0.00 in
09:39 42.5 °F 24.2 °F 30.24 in WSW 11.0 mph 19.0 mph 48% 0.00 in
09:44 42.7 °F 24.4 °F 30.25 in NW 10.0 mph 22.0 mph 48% 0.00 in
09:49 42.9 °F 24.5 °F 30.25 in SW 16.0 mph 21.0 mph 48% 0.00 in
09:54 43.2 °F 24.8 °F 30.25 in WSW 5.0 mph 20.0 mph 48% 0.00 in
09:59 43.2 °F 23.8 °F 30.25 in WSW 10.0 mph 20.0 mph 46% 0.00 in
10:04 43.3 °F 24.4 °F 30.25 in WSW 11.0 mph 19.0 mph 47% 0.00 in
10:09 43.3 °F 23.9 °F 30.25 in SW 7.0 mph 18.0 mph 46% 0.00 in
10:14 44.0 °F 24.5 °F 30.26 in SW 10.0 mph 16.0 mph 46% 0.00 in
10:19 44.2 °F 24.2 °F 30.26 in SW 8.0 mph 17.0 mph 45% 0.00 in
10:24 44.5 °F 25.0 °F 30.26 in WSW 6.0 mph 18.0 mph 46% 0.00 in
10:29 44.1 °F 24.6 °F 30.26 in WSW 9.0 mph 24.0 mph 46% 0.00 in
10:34 44.2 °F 25.2 °F 30.27 in WSW 10.0 mph 24.0 mph 47% 0.00 in
10:39 44.8 °F 24.7 °F 30.27 in WSW 10.0 mph 20.0 mph 45% 0.00 in
10:44 44.2 °F 24.7 °F 30.27 in WSW 10.0 mph 20.0 mph 46% 0.00 in
10:49 44.6 °F 25.6 °F 30.27 in SW 13.0 mph 21.0 mph 47% 0.00 in
10:54 44.9 °F 25.9 °F 30.27 in SW 12.0 mph 19.0 mph 47% 0.00 in
10:59 44.6 °F 25.1 °F 30.27 in WSW 9.0 mph 19.0 mph 46% 0.00 in
11:04 44.6 °F 25.6 °F 30.27 in WSW 10.0 mph 19.0 mph 47% 0.00 in
11:09 44.6 °F 25.6 °F 30.27 in WSW 10.0 mph 19.0 mph 47% 0.00 in
11:14 44.3 °F 25.3 °F 30.27 in South 10.0 mph 21.0 mph 47% 0.00 in
11:19 44.5 °F 25.5 °F 30.27 in SW 13.0 mph 20.0 mph 47% 0.00 in
11:24 44.3 °F 26.3 °F 30.27 in WSW 8.0 mph 21.0 mph 49% 0.00 in
11:29 44.8 °F 25.8 °F 30.27 in WSW 11.0 mph 20.0 mph 47% 0.00 in
11:34 44.5 °F 26.0 °F 30.28 in SW 11.0 mph 20.0 mph 48% 0.00 in
11:39 44.4 °F 25.9 °F 30.28 in SW 11.0 mph 20.0 mph 48% 0.00 in
11:44 44.9 °F 26.9 °F 30.28 in SW 7.0 mph 17.0 mph 49% 0.00 in
11:49 44.9 °F 25.9 °F 30.28 in WSW 14.0 mph 24.0 mph 47% 0.00 in
11:54 44.7 °F 26.2 °F 30.28 in WSW 9.0 mph 20.0 mph 48% 0.00 in
11:59 44.6 °F 25.6 °F 30.28 in WSW 16.0 mph 20.0 mph 47% 0.00 in
12:04 44.4 °F 25.9 °F 30.28 in WSW 5.0 mph 20.0 mph 48% 0.00 in
12:09 44.7 °F 25.7 °F 30.28 in WSW 11.0 mph 25.0 mph 47% 0.00 in
12:14 45.3 °F 27.2 °F 30.27 in WSW 11.0 mph 25.0 mph 49% 0.00 in
12:19 45.1 °F 26.1 °F 30.27 in WSW 15.0 mph 22.0 mph 47% 0.00 in
12:24 44.9 °F 25.9 °F 30.27 in SW 9.0 mph 20.0 mph 47% 0.00 in
12:29 44.8 °F 25.8 °F 30.27 in WSW 12.0 mph 18.0 mph 47% 0.00 in
12:34 45.2 °F 26.1 °F 30.27 in SW 11.0 mph 21.0 mph 47% 0.00 in
12:39 45.4 °F 26.3 °F 30.27 in SW 11.0 mph 21.0 mph 47% 0.00 in
12:44 45.2 °F 25.6 °F 30.27 in NW 11.0 mph 20.0 mph 46% 0.00 in
12:49 45.2 °F 26.1 °F 30.27 in WSW 6.0 mph 20.0 mph 47% 0.00 in
12:54 45.1 °F 26.6 °F 30.27 in SW 9.0 mph 19.0 mph 48% 0.00 in
13:04 45.7 °F 27.6 °F 30.26 in SW 8.0 mph 18.0 mph 49% 0.00 in
13:09 45.6 °F 26.0 °F 30.26 in WSW 9.0 mph 20.0 mph 46% 0.00 in
13:14 45.2 °F 26.1 °F 30.26 in WSW 9.0 mph 20.0 mph 47% 0.00 in
13:19 45.0 °F 26.0 °F 30.26 in WSW 11.0 mph 22.0 mph 47% 0.00 in
13:24 45.5 °F 26.4 °F 30.26 in WSW 10.0 mph 22.0 mph 47% 0.00 in
13:29 45.2 °F 25.6 °F 30.25 in WSW 9.0 mph 17.0 mph 46% 0.00 in
13:34 44.9 °F 25.9 °F 30.26 in WSW 10.0 mph 19.0 mph 47% 0.00 in
13:39 45.7 °F 26.6 °F 30.25 in SW 7.0 mph 15.0 mph 47% 0.00 in
13:44 45.2 °F 26.7 °F 30.25 in SW 9.0 mph 17.0 mph 48% 0.00 in
13:49 45.1 °F 26.6 °F 30.25 in WSW 9.0 mph 17.0 mph 48% 0.00 in
13:54 45.2 °F 27.2 °F 30.25 in SW 6.0 mph 15.0 mph 49% 0.00 in
13:59 45.6 °F 27.5 °F 30.25 in West 6.0 mph 13.0 mph 49% 0.00 in
14:04 45.7 °F 27.1 °F 30.25 in WNW 4.0 mph 14.0 mph 48% 0.00 in
14:09 45.8 °F 27.7 °F 30.25 in SW 7.0 mph 15.0 mph 49% 0.00 in
14:14 45.7 °F 27.1 °F 30.25 in SW 7.0 mph 14.0 mph 48% 0.00 in
14:19 45.4 °F 27.8 °F 30.25 in WSW 8.0 mph 14.0 mph 50% 0.00 in
14:24 46.0 °F 28.4 °F 30.25 in WSW 8.0 mph 14.0 mph 50% 0.00 in
14:29 45.5 °F 27.9 °F 30.25 in WSW 8.0 mph 14.0 mph 50% 0.00 in
14:34 45.1 °F 27.1 °F 30.25 in WSW 9.0 mph 19.0 mph 49% 0.00 in
14:39 44.9 °F 27.4 °F 30.25 in WSW 10.0 mph 19.0 mph 50% 0.00 in
14:44 45.1 °F 27.6 °F 30.25 in WSW 9.0 mph 17.0 mph 50% 0.00 in
14:49 45.5 °F 27.9 °F 30.26 in SW 5.0 mph 12.0 mph 50% 0.00 in
14:54 45.3 °F 27.2 °F 30.26 in SW 11.0 mph 17.0 mph 49% 0.00 in
14:59 45.0 °F 26.5 °F 30.26 in SSW 9.0 mph 17.0 mph 48% 0.00 in
15:04 45.2 °F 28.1 °F 30.26 in SSW 6.0 mph 18.0 mph 51% 0.00 in
15:09 44.2 °F 27.7 °F 30.26 in WSW 5.0 mph 16.0 mph 52% 0.00 in
15:14 44.5 °F 28.0 °F 30.26 in SW 9.0 mph 16.0 mph 52% 0.00 in
15:19 45.1 °F 29.0 °F 30.26 in SW 7.0 mph 14.0 mph 53% 0.00 in
15:24 44.9 °F 28.8 °F 30.26 in SW 7.0 mph 14.0 mph 53% 0.00 in
15:29 44.1 °F 28.0 °F 30.26 in SW 8.0 mph 14.0 mph 53% 0.00 in
15:34 44.1 °F 28.5 °F 30.27 in WSW 8.0 mph 15.0 mph 54% 0.00 in
15:39 44.2 °F 28.6 °F 30.27 in SW 6.0 mph 16.0 mph 54% 0.00 in
15:44 44.0 °F 28.9 °F 30.27 in SW 7.0 mph 16.0 mph 55% 0.00 in
15:49 43.8 °F 28.7 °F 30.27 in WSW 7.0 mph 12.0 mph 55% 0.00 in
15:54 43.8 °F 29.1 °F 30.27 in West 4.0 mph 10.0 mph 56% 0.00 in
15:59 44.5 °F 28.9 °F 30.27 in WSW 3.0 mph 8.0 mph 54% 0.00 in
16:04 44.3 °F 28.7 °F 30.27 in WSW 6.0 mph 11.0 mph 54% 0.00 in
16:09 44.3 °F 28.2 °F 30.27 in SSW 7.0 mph 11.0 mph 53% 0.00 in
16:14 44.2 °F 28.6 °F 30.27 in SW 6.0 mph 11.0 mph 54% 0.00 in
16:19 43.8 °F 28.2 °F 30.27 in SW 6.0 mph 11.0 mph 54% 0.00 in
16:24 43.6 °F 28.5 °F 30.27 in SW 5.0 mph 11.0 mph 55% 0.00 in
16:29 43.4 °F 28.7 °F 30.28 in WSW 4.0 mph 9.0 mph 56% 0.00 in
16:34 43.3 °F 28.6 °F 30.28 in WSW 6.0 mph 9.0 mph 56% 0.00 in
16:39 43.3 °F 28.6 °F 30.28 in SW 7.0 mph 10.0 mph 56% 0.00 in
16:44 43.1 °F 28.5 °F 30.28 in SW 5.0 mph 12.0 mph 56% 0.00 in
16:49 43.1 °F 28.5 °F 30.28 in WSW 5.0 mph 12.0 mph 56% 0.00 in
16:54 43.0 °F 28.8 °F 30.28 in SW 5.0 mph 10.0 mph 57% 0.00 in
16:59 42.8 °F 28.6 °F 30.28 in SSW 3.0 mph 9.0 mph 57% 0.00 in
17:04 42.5 °F 28.8 °F 30.28 in WSW 6.0 mph 10.0 mph 58% 0.00 in
17:09 42.0 °F 28.7 °F 30.28 in WSW 4.0 mph 8.0 mph 59% 0.00 in
17:14 41.6 °F 28.7 °F 30.28 in SSW 4.0 mph 9.0 mph 60% 0.00 in
17:19 41.0 °F 28.6 °F 30.28 in SSW 4.0 mph 9.0 mph 61% 0.00 in
17:24 40.6 °F 28.6 °F 30.28 in SW 4.0 mph 10.0 mph 62% 0.00 in
17:29 40.3 °F 28.7 °F 30.28 in WSW 3.0 mph 8.0 mph 63% 0.00 in
17:34 40.1 °F 28.5 °F 30.28 in WSW 4.0 mph 6.0 mph 63% 0.00 in
17:39 39.9 °F 28.7 °F 30.28 in SW 5.0 mph 6.0 mph 64% 0.00 in
17:44 39.6 °F 28.4 °F 30.28 in SSW 2.0 mph 6.0 mph 64% 0.00 in
17:49 39.4 °F 28.2 °F 30.28 in SW 4.0 mph 7.0 mph 64% 0.00 in
17:54 39.2 °F 28.0 °F 30.29 in SW 3.0 mph 7.0 mph 64% 0.00 in
17:59 39.1 °F 28.3 °F 30.29 in SW 3.0 mph 7.0 mph 65% 0.00 in
18:04 38.9 °F 28.1 °F 30.29 in SW 4.0 mph 7.0 mph 65% 0.00 in
18:09 38.7 °F 27.9 °F 30.29 in WSW 4.0 mph 4.0 mph 65% 0.00 in
18:14 38.4 °F 28.0 °F 30.29 in SW 1.0 mph 5.0 mph 66% 0.00 in
18:19 38.1 °F 27.7 °F 30.29 in WSW 2.0 mph 3.0 mph 66% 0.00 in
18:24 37.8 °F 27.8 °F 30.29 in SW 3.0 mph 4.0 mph 67% 0.00 in
18:29 37.6 °F 27.6 °F 30.29 in WSW 1.0 mph 4.0 mph 67% 0.00 in
18:34 37.4 °F 27.4 °F 30.29 in SW 1.0 mph 3.0 mph 67% 0.00 in
18:39 37.2 °F 27.6 °F 30.30 in SW 1.0 mph 3.0 mph 68% 0.00 in
18:44 37.1 °F 27.5 °F 30.29 in WSW 1.0 mph 2.0 mph 68% 0.00 in
18:49 36.9 °F 27.3 °F 30.29 in SW 1.0 mph 3.0 mph 68% 0.00 in
18:54 36.8 °F 27.2 °F 30.29 in SW 1.0 mph 3.0 mph 68% 0.00 in
18:59 36.8 °F 27.6 °F 30.29 in SW 2.0 mph 3.0 mph 69% 0.00 in
19:04 36.7 °F 27.5 °F 30.29 in SW 1.0 mph 3.0 mph 69% 0.00 in
19:09 36.6 °F 27.4 °F 30.29 in SW 1.0 mph 3.0 mph 69% 0.00 in
19:14 36.5 °F 27.3 °F 30.29 in SW 1.0 mph 2.0 mph 69% 0.00 in
19:19 36.4 °F 27.2 °F 30.29 in SW 1.0 mph 2.0 mph 69% 0.00 in
19:24 36.2 °F 27.4 °F 30.29 in Calm   2.0 mph 70% 0.00 in
19:29 36.0 °F 27.2 °F 30.29 in Calm   2.0 mph 70% 0.00 in
19:34 35.9 °F 27.1 °F 30.29 in Calm   1.0 mph 70% 0.00 in
19:39 35.8 °F 27.0 °F 30.29 in Calm     70% 0.00 in
19:44 35.6 °F 26.8 °F 30.29 in Calm     70% 0.00 in
19:49 35.6 °F 27.1 °F 30.29 in Calm     71% 0.00 in
19:54 35.3 °F 26.5 °F 30.29 in Calm     70% 0.00 in
19:59 35.1 °F 26.6 °F 30.29 in Calm     71% 0.00 in
20:04 34.8 °F 26.4 °F 30.29 in Calm     71% 0.00 in
20:09 34.6 °F 26.5 °F 30.29 in Calm     72% 0.00 in
20:14 34.4 °F 26.3 °F 30.29 in Calm     72% 0.00 in
20:19 34.1 °F 26.3 °F 30.29 in Calm     73% 0.00 in
20:24 34.0 °F 26.3 °F 30.29 in Calm     73% 0.00 in
20:29 33.7 °F 26.3 °F 30.29 in Calm     74% 0.00 in
20:34 33.6 °F 26.2 °F 30.29 in Calm     74% 0.00 in
20:39 33.5 °F 26.4 °F 30.29 in Calm     75% 0.00 in
20:44 33.5 °F 26.4 °F 30.29 in Calm     75% 0.00 in
20:49 33.3 °F 26.2 °F 30.29 in Calm     75% 0.00 in
20:54 33.1 °F 26.4 °F 30.29 in Calm     76% 0.00 in
20:59 33.1 °F 26.4 °F 30.29 in Calm     76% 0.00 in
21:04 33.0 °F 26.3 °F 30.29 in Calm     76% 0.00 in
21:09 32.9 °F 26.2 °F 30.29 in Calm     76% 0.00 in
21:14 32.8 °F 26.1 °F 30.29 in Calm     76% 0.00 in
21:19 32.8 °F 26.1 °F 30.29 in Calm     76% 0.00 in
21:24 33.1 °F 26.4 °F 30.29 in Calm     76% 0.00 in
21:29 33.5 °F 26.4 °F 30.29 in Calm     75% 0.00 in
21:34 34.1 °F 26.3 °F 30.29 in Calm     73% 0.00 in
21:39 34.4 °F 26.6 °F 30.29 in Calm     73% 0.00 in
21:44 34.5 °F 26.4 °F 30.29 in Calm     72% 0.00 in
21:49 34.0 °F 25.9 °F 30.29 in Calm     72% 0.00 in
21:54 34.2 °F 26.1 °F 30.29 in Calm     72% 0.00 in
21:59 34.3 °F 26.2 °F 30.29 in Calm     72% 0.00 in
22:04 33.9 °F 26.2 °F 30.29 in Calm     73% 0.00 in
22:09 33.5 °F 26.1 °F 30.29 in Calm     74% 0.00 in
22:14 33.5 °F 26.1 °F 30.29 in Calm     74% 0.00 in
22:19 33.8 °F 26.4 °F 30.29 in Calm     74% 0.00 in
22:24 34.3 °F 26.5 °F 30.29 in Calm     73% 0.00 in
22:29 34.4 °F 26.6 °F 30.28 in Calm     73% 0.00 in
22:34 34.6 °F 26.5 °F 30.29 in Calm     72% 0.00 in
22:39 34.6 °F 26.5 °F 30.28 in Calm     72% 0.00 in
22:44 34.5 °F 26.7 °F 30.28 in Calm     73% 0.00 in
22:49 34.6 °F 26.8 °F 30.28 in Calm     73% 0.00 in
22:54 34.5 °F 26.7 °F 30.28 in Calm     73% 0.00 in
22:59 34.8 °F 26.7 °F 30.28 in Calm     72% 0.00 in
23:04 35.2 °F 26.7 °F 30.28 in Calm     71% 0.00 in
23:09 34.9 °F 26.4 °F 30.28 in Calm     71% 0.00 in
23:14 34.6 °F 26.8 °F 30.28 in Calm     73% 0.00 in
23:19 34.8 °F 26.7 °F 30.28 in Calm     72% 0.00 in
23:24 35.2 °F 26.7 °F 30.28 in Calm     71% 0.00 in
23:29 35.4 °F 27.3 °F 30.29 in Calm     72% 0.00 in
23:34 35.6 °F 27.1 °F 30.29 in Calm     71% 0.00 in
23:39 35.4 °F 26.9 °F 30.29 in Calm     71% 0.00 in
23:44 35.1 °F 27.0 °F 30.29 in Calm     72% 0.00 in
23:49 35.1 °F 27.0 °F 30.29 in Calm     72% 0.00 in
23:54 35.2 °F 27.1 °F 30.29 in Calm     72% 0.00 in
23:59 35.4 °F 26.9 °F 30.29 in Calm     71% 0.00 in
Buffalo, New York, USA
Compliments of Weather Underground - 2.5 mb